Weather History for Topeka, KS

Change the Weather History Date:

Saturday, December 29, 2012

  Actual Average Record
Temperature  
Mean Temperature 27 °F 30 °F  
Max Temperature 38 °F 40 °F 70 °F (1999)
Min Temperature 16 °F 20 °F -9 °F (1917)
Degree Days  
Heating Degree Days 38 35  
Month to date heating degree days 815 953  
Since 1 July heating degree days 1702 1947  
Cooling Degree Days 0 0  
Month to date cooling degree days 0 0  
Year to date cooling degree days 1978 1422  
Moisture  
Dew Point 15 °F    
Average Humidity 64    
Maximum Humidity 84    
Minimum Humidity 44    
Precipitation  
Precipitation 0.00 in 0.03 in 0.82 in (1972)
Month to date precipitation 0.61 1.29  
Year to date precipitation 22.88 36.40  
Snow  
Snow 0.00 in 0.10 in 0.50 in (1990)
Month to date snowfall 2.8 4.8  
Year to date snowfall 5.8 17.4  
Since 1 July snowfall 2.8 6.1  
Snow Depth 0.00 in    
Sea Level Pressure  
Sea Level Pressure 30.29 in    
Wind  
Wind Speed 7 mph (West)    
Max Wind Speed 17 mph    
Max Gust Speed 21 mph    
Visibility 10 miles    
Events      
T = Trace of Precipitation, MM = Missing Value Source: NWS Daily Summary

Daily Weather History Graph

Daily Weather History Graph

Search for Another Location

Airport:

Trip Planner

Search our weather history database for the weather conditions in past years. The results will help you decide how hot, cold, wet, or windy it might be!

Date:

Astronomy

Dec. 29, 2012 Rise Set
Actual Time 7:41 AM CST 5:08 PM CST
Civil Twilight 7:11 AM CST 5:38 PM CST
Nautical Twilight 6:37 AM CST 6:12 PM CST
Astronomical Twilight 6:05 AM CST 6:44 PM CST
Moon 6:41 PM CST (12/29) 8:15 AM CST (12/29)
Length of Visible Light 10h 27m
Length of Day
9h 27m
Full, 98% of the Moon is Illuminated
Dec 29
Full
Jan 4
Last Quarter
Jan 11
New
Jan 18
First Quarter
Jan 26
Full

Hourly Weather History & Observations

Time (CST) Temp. Windchill Dew Point Humidity Pressure Visibility Wind Dir Wind Speed Gust Speed Precip Events Conditions
12:53 AM 21.0 °F 8.6 °F 14.0 °F 74% 30.17 in 8.0 mi NW 12.7 mph - N/A   Overcast
1:53 AM 21.0 °F 8.6 °F 12.9 °F 71% 30.19 in 9.0 mi WNW 12.7 mph - N/A   Overcast
2:53 AM 19.9 °F 7.9 °F 12.9 °F 74% 30.22 in 9.0 mi NW 11.5 mph - N/A   Overcast
3:53 AM 19.9 °F 7.9 °F 12.9 °F 74% 30.23 in 9.0 mi NW 11.5 mph - N/A   Overcast
4:53 AM 19.9 °F 10.1 °F 12.9 °F 74% 30.23 in 9.0 mi WNW 8.1 mph - N/A   Overcast
5:53 AM 19.0 °F 8.2 °F 12.9 °F 77% 30.25 in 10.0 mi WNW 9.2 mph - N/A   Overcast
6:11 AM 19.0 °F 8.2 °F 12.9 °F 77% 30.22 in 10.0 mi NW 9.2 mph - N/A   Overcast
6:37 AM 18.0 °F 9.8 °F 12.0 °F 78% 30.23 in 10.0 mi WNW 5.8 mph - N/A   Mostly Cloudy
6:44 AM 18.0 °F 8.7 °F 12.0 °F 78% 30.24 in 10.0 mi WNW 6.9 mph - N/A   Scattered Clouds
6:53 AM 18.0 °F 6.9 °F 12.0 °F 78% 30.28 in 10.0 mi WNW 9.2 mph - N/A   Clear
7:53 AM 16.0 °F 8.8 °F 10.9 °F 81% 30.31 in 9.0 mi Variable 4.6 mph - N/A   Clear
8:53 AM 17.1 °F 5.8 °F 10.9 °F 77% 30.32 in 10.0 mi West 9.2 mph - N/A   Clear
9:53 AM 19.9 °F 10.1 °F 12.0 °F 71% 30.33 in 10.0 mi West 8.1 mph - N/A   Clear
10:53 AM 23.0 °F 13.9 °F 12.0 °F 63% 30.35 in 10.0 mi WNW 8.1 mph - N/A   Clear
11:53 AM 27.0 °F 17.3 °F 12.9 °F 56% 30.34 in 10.0 mi West 10.4 mph - N/A   Clear
12:53 PM 30.9 °F 25.2 °F 14.0 °F 50% 30.30 in 10.0 mi West 5.8 mph - N/A   Clear
1:53 PM 35.1 °F 29.3 °F 15.1 °F 44% 30.28 in 10.0 mi West 6.9 mph - N/A   Clear
2:53 PM 37.0 °F 29.3 °F 17.1 °F 44% 30.29 in 10.0 mi WNW 11.5 mph - N/A   Clear
3:53 PM 37.0 °F 31.0 °F 18.0 °F 46% 30.30 in 10.0 mi West 8.1 mph - N/A   Clear
4:53 PM 35.6 °F 32.8 °F 19.4 °F 52% 30.27 in 10.0 mi West 3.5 mph - N/A   Clear
5:53 PM 32.0 °F 28.7 °F 19.0 °F 59% 30.31 in 10.0 mi SSW 3.5 mph - N/A   Clear
6:53 PM 27.0 °F 21.6 °F 19.0 °F 72% 30.32 in 10.0 mi SSE 4.6 mph - N/A   Clear
7:53 PM 27.0 °F 23.0 °F 18.0 °F 69% 30.33 in 10.0 mi South 3.5 mph - N/A   Clear
8:53 PM 24.1 °F - 18.0 °F 77% 30.32 in 10.0 mi Calm Calm - N/A   Clear
9:53 PM 23.0 °F - 17.1 °F 78% 30.32 in 10.0 mi Calm Calm - N/A   Clear
10:53 PM 21.9 °F - 18.0 °F 85% 30.32 in 10.0 mi Calm Calm - N/A   Clear
11:53 PM 19.9 °F - 16.0 °F 85% 30.34 in 10.0 mi Calm Calm - N/A   Clear